PROFILE

 METAR AND TAF INFORMATION
ADDS - METARS form results

(0623 UTC 22 September 2019)
http://aviationweather.gov/metar/data/
 
LPPR 220600Z 19003KT 9000 FEW015 SCT022 15/15 Q1014
LPPR 220530Z 20002KT 9999 FEW004 SCT006 15/15 Q1013
TAF LPPR 220500Z 2206/2306 19008KT 9999 SCT015 TEMPO 2206/2215 8000 SHRA FEW008 BKN012 BECMG 2213/2215 25008KT BECMG 2220/2222 17007KT FEW015 

 AIRPORT MAP

 RUNWAY INFORMATION
Runway 17 Runway length 11417 ft Runway width 148 ft
Runway elevation 151 ft Runway displaced threshold 984 ft Runway heading 169
Runway 35 Runway length 11417 ft Runway width 148 ft
Runway elevation 226 ft Runway displaced threshold 492 ft Runway heading 349

 AIRPORT FREQUENCIES
Type APP Name APP Frequency 121.1 MHZ
Type ATIS Name ATIS Frequency 124.3 MHZ
Type TWR Name TWR Frequency 118 MHZ

 AIRPORT NEAR NAVIGATION AIDS
Type NDB Name Porto Frequency 367 KHZ
Type NDB Name Porto Frequency 327 KHZ
Type VOR-DME Name Porto Frequency 114100 KHZ